Weather History for Marathon, FL

Change the Weather History Date:

Saturday, November 17, 2012

  Actual Average Record
Temperature  
Mean Temperature 75 °F 76 °F  
Max Temperature 80 °F 80 °F 87 °F (2014)
Min Temperature 70 °F 71 °F 60 °F (2008)
Degree Days  
Heating Degree Days 0 0  
Month to date heating degree days 0 0  
Since 1 July heating degree days 0 0  
Cooling Degree Days 10 11  
Month to date cooling degree days 155 198  
Year to date cooling degree days 4913 4637  
Growing Degree Days 24 (Base 50)    
Moisture  
Dew Point 65 °F    
Average Humidity 73    
Maximum Humidity 84    
Minimum Humidity 62    
Precipitation  
Precipitation 0.00 in 0.10 in 0.53 in (1998)
Month to date precipitation 0.10 1.88  
Year to date precipitation 43.90 43.21  
Snow  
Snow 0.00 in - - ()
Month to date snowfall 0.0  
Since 1 July snowfall 0.0  
Since 1 September snowfall 0.0  
Snow Depth 0.00 in    
Sea Level Pressure  
Sea Level Pressure 30.03 in    
Wind  
Wind Speed 11 mph (NE)    
Max Wind Speed 16 mph    
Max Gust Speed 22 mph    
Visibility 10 miles    
Events      
T = Trace of Precipitation, MM = Missing Value Source: NWS Daily Summary

Daily Weather History Graph

Daily Weather History Graph

Search for Another Location

Airport:

Trip Planner

Search our weather history database for the weather conditions in past years. The results will help you decide how hot, cold, wet, or windy it might be!

Date:

Astronomy

Nov. 17, 2012 Rise Set
Actual Time 6:42 AM EST 5:36 PM EST
Civil Twilight 6:17 AM EST 6:00 PM EST
Nautical Twilight 5:50 AM EST 6:28 PM EST
Astronomical Twilight 5:22 AM EST 6:55 PM EST
Moon 10:25 AM EST (11/17) 9:42 PM EST (11/17)
Length of Visible Light 11h 42m
Length of Day
10h 54m
Waxing Crescent, 20% of the Moon is Illuminated
Nov 17
Waxing Crescent
Nov 20
First Quarter
Nov 28
Full
Dec 6
Last Quarter
Dec 13
New

Hourly Weather History & Observations

Time (EST) Temp. Dew Point Humidity Pressure Visibility Wind Dir Wind Speed Gust Speed Precip Events Conditions
12:53 AM 73.0 °F 64.9 °F 76% 30.02 in 10.0 mi NE 11.5 mph - N/A   Clear
1:53 AM 72.0 °F 64.9 °F 78% 30.01 in 10.0 mi NNE 9.2 mph - N/A   Clear
2:53 AM 72.0 °F 66.0 °F 81% 30.00 in 10.0 mi NNE 8.1 mph - N/A   Clear
3:53 AM 72.0 °F 66.0 °F 81% 30.01 in 10.0 mi NNE 8.1 mph - N/A   Clear
4:53 AM 71.1 °F 64.9 °F 81% 30.01 in 10.0 mi NNE 11.5 mph - N/A   Clear
5:53 AM 71.1 °F 64.9 °F 81% 30.03 in 10.0 mi NNE 9.2 mph - N/A   Clear
6:53 AM 70.0 °F 64.9 °F 84% 30.04 in 10.0 mi NNE 11.5 mph - N/A   Clear
7:18 AM 69.8 °F 64.4 °F 83% 30.05 in 10.0 mi NNE 10.4 mph - N/A   Partly Cloudy
7:53 AM 71.1 °F 64.9 °F 81% 30.05 in 10.0 mi NNE 15.0 mph 19.6 mph N/A   Clear
8:02 AM 71.6 °F 64.4 °F 78% 30.05 in 10.0 mi NNE 13.8 mph - N/A   Partly Cloudy
8:53 AM 73.0 °F 64.9 °F 76% 30.07 in 10.0 mi NNE 11.5 mph 19.6 mph N/A   Clear
9:53 AM 73.9 °F 64.9 °F 73% 30.07 in 10.0 mi NNE 11.5 mph - N/A   Clear
10:53 AM 75.9 °F 64.9 °F 69% 30.07 in 10.0 mi NE 13.8 mph - N/A   Partly Cloudy
11:53 AM 78.1 °F 64.0 °F 62% 30.06 in 10.0 mi NNE 13.8 mph - N/A   Clear
12:53 PM 77.0 °F 64.0 °F 64% 30.04 in 10.0 mi NE 10.4 mph - N/A   Clear
1:53 PM 79.0 °F 64.0 °F 60% 30.03 in 10.0 mi NE 13.8 mph - N/A   Clear
2:53 PM 78.1 °F 64.0 °F 62% 30.01 in 10.0 mi ENE 15.0 mph - N/A   Clear
3:53 PM 75.9 °F 64.9 °F 69% 30.01 in 10.0 mi East 6.9 mph - N/A   Partly Cloudy
4:53 PM 75.9 °F 64.9 °F 69% 30.01 in 10.0 mi ENE 5.8 mph - N/A   Clear
5:53 PM 75.9 °F 64.0 °F 67% 30.01 in 10.0 mi ENE 9.2 mph - N/A   Clear
6:53 PM 75.9 °F 64.0 °F 67% 30.02 in 10.0 mi NE 12.7 mph - N/A   Clear
7:53 PM 75.9 °F 64.0 °F 67% 30.04 in 10.0 mi NE 12.7 mph - N/A   Clear
8:53 PM 75.0 °F 64.0 °F 69% 30.05 in 10.0 mi NE 10.4 mph - N/A   Clear
9:53 PM 75.0 °F 64.9 °F 71% 30.05 in 10.0 mi NE 11.5 mph - N/A   Clear
10:53 PM 73.9 °F 64.9 °F 73% 30.05 in 10.0 mi NNE 9.2 mph - N/A   Clear
11:53 PM 73.9 °F 64.0 °F 71% 30.04 in 10.0 mi NNE 9.2 mph - N/A   Clear